[[{"header":{"parameterUnit":"m.s-1","parameterCategory":1,"la1":30.2991,"la2":30.254,"lo1":-89.0895,"lo2":-89.0444,"dy":0.0017,"dx":0.0017,"nx":28,"ny":28,"refTime":"2024-08-08T21:00:00:Z","depth":0,"parameterNumber":2,"parameterNumberName":"U-component_of_WINDS"},"data":[0,0,0,0,0,0,0,0,0,0,0,0,0,0,0,0,0,0,0,0,0,0,0,0,0,0,0,0,0,0,0,0,0,0,0,0,0,0,0,0,0,0,0,0,0,0,0,0,0,0,0,0,0,0,0,0,0,0,-2.128,-2.128,0,-2.1225,-2.1225,-2.1224,-2.1142,-2.114,-2.1139,-2.1138,-2.1082,-2.1082,-2.1081,0,0,0,0,0,0,0,0,0,0,0,0,0,-2.1315,-2.1315,-2.128,-2.1279,-2.1279,-2.1225,-2.1225,-2.1224,-2.1142,-2.114,-2.1139,-2.1137,-2.1082,-2.1082,-2.1081,0,0,0,0,0,0,0,0,0,0,0,0,0,-2.1284,-2.1315,-2.128,-2.1232,-2.1227,-2.1225,-2.1225,-2.1224,-2.1143,-2.114,-2.1138,-2.1136,-2.1082,-2.1082,-2.1081,-2.1123,0,0,-2.1081,-2.1081,0,0,0,0,0,0,0,0,-2.1286,-2.1283,-2.1239,-2.1235,-2.1229,-2.1188,-2.1216,-2.119,-2.1143,-2.1175,-2.1138,-2.1135,-2.1119,-2.1116,-2.111,-2.1121,-2.1118,-2.1081,-2.1081,-2.1081,-2.108,0,0,0,0,0,0,0,-2.1288,-2.1285,-2.1258,-2.1239,-2.1233,-2.1213,-2.1206,-2.1211,-2.116,-2.1172,-2.1166,-2.116,-2.1116,-2.111,-2.1108,-2.1118,-2.1081,-2.1081,-2.108,-2.108,-2.1161,-2.1163,0,0,0,0,0,0,-2.1297,-2.1287,-2.126,-2.1257,-2.1253,-2.1214,-2.1206,-2.1204,-2.1159,-2.115,-2.1162,-2.1157,-2.1112,-2.1108,-2.1106,-2.1153,-2.1081,-2.108,-2.108,-2.1158,-2.1161,-2.1164,0,0,0,0,0,0,-2.1298,-2.1296,-2.1262,-2.127,-2.1264,-2.1215,-2.1213,-2.1204,-2.1198,-2.1152,-2.1142,-2.1166,-2.111,-2.1106,-2.112,-2.115,-2.108,-2.108,-2.1156,-2.1159,-2.1162,-2.1247,0,0,0,0,0,0,-2.13,-2.1297,-2.1312,-2.1271,-2.1264,-2.1278,-2.1215,-2.1204,-2.1198,-2.119,-2.1153,-2.1145,-2.1108,-2.1121,-2.112,-2.1148,-2.108,-2.1153,-2.1157,-2.1161,-2.1241,-2.1253,-2.1262,0,0,0,0,0,-2.1301,-2.1338,-2.1313,-2.131,-2.1283,-2.1279,-2.1275,-2.1232,-2.1201,-2.1216,-2.1186,-2.1146,-2.1146,-2.1123,-2.1121,-2.115,-2.1151,-2.1156,-2.1161,-2.1236,-2.125,-2.1262,0,0,0,0,0,0,-2.1383,-2.1332,-2.1304,-2.1328,-2.1309,-2.1266,-2.1283,-2.1248,-2.1237,-2.1231,-2.1177,-2.117,-2.119,-2.1171,-2.1146,-2.1188,-2.1142,-2.1148,-2.12,-2.1213,-2.1224,-2.1228,-2.108,0,0,0,0,0,-2.1404,-2.1406,-2.1361,-2.1387,-2.1378,-2.1333,-2.133,-2.1298,-2.1276,-2.1267,-2.1238,-2.1219,-2.1214,-2.1212,-2.1206,-2.1238,-2.1229,-2.1256,-2.1267,-2.1276,-2.1281,-2.1298,-2.131,-2.118,-2.118,-2.118,0,0,-2.1448,-2.142,-2.1424,-2.1402,-2.1384,-2.1387,-2.1326,-2.1332,-2.1334,-2.1268,-2.128,-2.1258,-2.1232,-2.1255,-2.1264,-2.124,-2.1315,-2.1283,-2.129,-2.129,-2.1304,-2.1316,-2.1327,-2.1184,-2.1183,-2.1183,0,0,-2.1529,-2.1507,-2.1527,-2.151,-2.1482,-2.1451,-2.1456,-2.1418,-2.1401,-2.1412,-2.1363,-2.1364,-2.1357,-2.1341,-2.1332,-2.1408,-2.137,-2.1407,-2.1463,-2.1479,-2.1489,-2.1498,-2.1526,-2.1536,-2.1412,-2.1412,-2.1412,0,-2.1586,-2.1589,-2.1542,-2.1551,-2.1543,-2.1483,-2.1503,-2.1488,-2.146,-2.1456,-2.1429,-2.142,-2.1398,-2.1417,-2.1436,-2.143,-2.1435,-2.1411,-2.1492,-2.15,-2.1508,-2.1533,-2.1544,-2.1417,-2.1416,-2.1416,-2.1415,0,-2.1662,-2.1664,-2.1684,-2.1658,-2.1652,-2.1667,-2.1622,-2.1621,-2.159,-2.1563,-2.1574,-2.1546,-2.1533,-2.1535,-2.1505,-2.155,-2.1536,-2.1501,-2.1454,-2.1525,-2.1549,-2.1558,-2.1423,-2.1422,-2.142,-2.1419,0,0,-2.1794,-2.1741,-2.1749,-2.1737,-2.1703,-2.1704,-2.1716,-2.1703,-2.1704,-2.1686,-2.1696,-2.1691,-2.1659,-2.1649,-2.1616,-2.163,-2.1693,-2.1593,-2.1592,-2.1614,-2.1742,-2.1769,-2.1781,-2.1667,-2.1669,-2.167,-2.1744,0,-2.1868,-2.1886,-2.1843,-2.1871,-2.1874,-2.1817,-2.1827,-2.1807,-2.1782,-2.178,-2.1751,-2.175,-2.1707,-2.17,-2.1712,-2.1683,-2.1718,-2.1677,-2.1676,-2.1677,-2.1685,-2.1793,-2.1822,-2.1893,-2.1753,-2.1755,-2.1756,0,-2.1958,-2.1945,-2.1974,-2.1938,-2.1937,-2.1947,-2.1932,-2.1931,-2.1907,-2.1888,-2.1877,-2.1838,-2.1848,-2.1802,-2.1814,-2.1787,-2.1784,-2.177,-2.1772,-2.1771,-2.1721,-2.1796,-2.1915,-2.1926,-2.1769,-2.1768,-2.1767,0,-2.2053,-2.2043,-2.2058,-2.205,-2.2008,-2.2016,-2.1999,-2.1973,-2.1968,-2.1955,-2.1952,-2.194,-2.1934,-2.1926,-2.1885,-2.1855,-2.1903,-2.1853,-2.1887,-2.1889,-2.1901,-2.1901,-2.2022,-2.1897,-2.1897,-2.1897,-2.1897,0,-2.2141,-2.2161,-2.21,-2.211,-2.2131,-2.2082,-2.2104,-2.2081,-2.2058,-2.2063,-2.2013,-2.2018,-2.1964,-2.1964,-2.1932,-2.1947,-2.1945,-2.193,-2.1921,-2.1935,-2.1937,-2.1933,-2.1927,-2.19,-2.1899,-2.1899,-2.1898,0,-2.2251,-2.2211,-2.2225,-2.2184,-2.2174,-2.2191,-2.2156,-2.2164,-2.2135,-2.2142,-2.214,-2.2095,-2.2092,-2.2051,-2.2039,-2.2017,-2.2046,-2.2028,-2.2054,-2.2049,-2.2085,-2.2083,-2.2209,-2.2223,-2.2089,-2.2091,-2.2092,0,-2.2311,-2.2325,-2.2286,-2.2285,-2.227,-2.227,-2.2265,-2.2217,-2.2214,-2.2188,-2.2199,-2.2192,-2.2184,-2.2181,-2.2148,-2.2138,-2.212,-2.2165,-2.2118,-2.2132,-2.2122,-2.2122,-2.2124,-2.2175,-2.2177,-2.2178,-2.2179,0,-2.2422,-2.2401,-2.2395,-2.2383,-2.2379,-2.2367,-2.2351,-2.2354,-2.2301,-2.23,-2.2297,-2.229,-2.2278,-2.2272,-2.2256,-2.2239,-2.2201,-2.2194,-2.2201,-2.2216,-2.2231,-2.2225,-2.2082,-2.2191,-2.219,-2.2189,-2.2189,-2.2188,-2.2509,-2.2519,-2.2493,-2.2488,-2.2472,-2.2459,-2.2464,-2.2436,-2.2432,-2.2419,-2.239,-2.2391,-2.2367,-2.2343,-2.2328,-2.2329,-2.2306,-2.2316,-2.2319,-2.2323,-2.2331,-2.2231,-2.2325,-2.2325,-2.2325,-2.2324,-2.2324,0,-2.2618,-2.2598,-2.2595,-2.2575,-2.2572,-2.2536,-2.2517,-2.2517,-2.2518,-2.2499,-2.2492,-2.2488,-2.2482,-2.2448,-2.2438,-2.2444,-2.2427,-2.2444,-2.2443,-2.244,-2.2351,-2.2346,-2.2458,-2.2458,-2.2458,-2.2458,-2.2458,-2.2458,-2.2674,-2.269,-2.2666,-2.2673,-2.2653,-2.2653,-2.2646,-2.2634,-2.2618,-2.2616,-2.2611,-2.2589,-2.2563,-2.2551,-2.2544,-2.2534,-2.2533,-2.2556,-2.2541,-2.2459,-2.2446,-2.2434,-2.2429,-2.2556,-2.2556,-2.2629,-2.263,-2.2631]},{"header":{"parameterUnit":"m.s-1","parameterCategory":1,"la1":30.2991,"la2":30.254,"lo1":-89.0895,"lo2":-89.0444,"dy":0.0017,"dx":0.0017,"nx":28,"ny":28,"refTime":"2024-08-08T21:00:00:Z","depth":0,"parameterNumber":3,"parameterNumberName":"V-component_of_WINDS"},"data":[0,0,0,0,0,0,0,0,0,0,0,0,0,0,0,0,0,0,0,0,0,0,0,0,0,0,0,0,0,0,0,0,0,0,0,0,0,0,0,0,0,0,0,0,0,0,0,0,0,0,0,0,0,0,0,0,0,0,-2.1834,-2.1834,0,-2.1823,-2.1823,-2.1823,-2.1799,-2.1798,-2.1797,-2.1797,-2.1787,-2.1787,-2.1787,0,0,0,0,0,0,0,0,0,0,0,0,0,-2.1833,-2.1834,-2.1834,-2.1834,-2.1833,-2.1823,-2.1823,-2.1823,-2.1799,-2.1798,-2.1797,-2.1797,-2.1787,-2.1787,-2.1787,0,0,0,0,0,0,0,0,0,0,0,0,0,-2.1829,-2.1834,-2.1834,-2.182,-2.1819,-2.1823,-2.1823,-2.1823,-2.1799,-2.1798,-2.1797,-2.1796,-2.1787,-2.1787,-2.1788,-2.1805,0,0,-2.1788,-2.1789,0,0,0,0,0,0,0,0,-2.183,-2.1829,-2.1822,-2.1821,-2.1819,-2.1811,-2.1819,-2.1817,-2.1799,-2.1806,-2.1797,-2.1796,-2.1796,-2.1795,-2.1795,-2.1804,-2.1804,-2.1788,-2.1789,-2.1789,-2.1789,0,0,0,0,0,0,0,-2.183,-2.183,-2.1829,-2.1822,-2.182,-2.1815,-2.1813,-2.1819,-2.1805,-2.1806,-2.1804,-2.1803,-2.1795,-2.1795,-2.1795,-2.1804,-2.1788,-2.1789,-2.1789,-2.1789,-2.1826,-2.1827,0,0,0,0,0,0,-2.1832,-2.183,-2.183,-2.1829,-2.1823,-2.1815,-2.1814,-2.1815,-2.1805,-2.1803,-2.1804,-2.1802,-2.1795,-2.1794,-2.1794,-2.1814,-2.1789,-2.1789,-2.1789,-2.1826,-2.1827,-2.1827,0,0,0,0,0,0,-2.1832,-2.1832,-2.183,-2.1829,-2.1828,-2.1816,-2.1817,-2.1815,-2.1815,-2.1804,-2.1801,-2.1806,-2.1794,-2.1794,-2.1802,-2.1813,-2.1789,-2.179,-2.1825,-2.1826,-2.1827,-2.1853,0,0,0,0,0,0,-2.1832,-2.1832,-2.1839,-2.1829,-2.1829,-2.1838,-2.1818,-2.1815,-2.1815,-2.1813,-2.1805,-2.1803,-2.1793,-2.1802,-2.1803,-2.1813,-2.179,-2.1824,-2.1825,-2.1827,-2.1851,-2.1855,-2.1858,0,0,0,0,0,-2.1832,-2.1847,-2.1839,-2.1839,-2.1836,-2.1839,-2.1838,-2.1827,-2.1816,-2.1823,-2.1815,-2.1803,-2.1812,-2.1803,-2.1803,-2.1814,-2.1823,-2.1825,-2.1826,-2.185,-2.1854,-2.1858,0,0,0,0,0,0,-2.1858,-2.1845,-2.1837,-2.1848,-2.1845,-2.1835,-2.1842,-2.1832,-2.1832,-2.1829,-2.1815,-2.1813,-2.1824,-2.182,-2.181,-2.183,-2.1815,-2.1817,-2.1833,-2.1837,-2.1841,-2.1841,-2.179,0,0,0,0,0,-2.1865,-2.1868,-2.1857,-2.1868,-2.1867,-2.1855,-2.1856,-2.1847,-2.1843,-2.1841,-2.1835,-2.1832,-2.1833,-2.1835,-2.1836,-2.185,-2.1848,-2.1858,-2.1862,-2.1865,-2.1867,-2.1874,-2.1878,-2.1833,-2.1833,-2.1833,0,0,-2.1879,-2.1872,-2.1875,-2.1873,-2.1869,-2.1873,-2.1854,-2.1859,-2.1862,-2.1842,-2.185,-2.1845,-2.184,-2.1852,-2.1857,-2.1849,-2.1878,-2.1867,-2.1869,-2.187,-2.1876,-2.188,-2.1884,-2.1835,-2.1834,-2.1834,0,0,-2.1907,-2.1902,-2.1911,-2.1908,-2.1903,-2.1895,-2.1897,-2.1888,-2.1884,-2.1892,-2.1877,-2.188,-2.1884,-2.1881,-2.188,-2.1907,-2.1897,-2.1908,-2.1927,-2.1934,-2.1938,-2.1941,-2.1951,-2.1954,-2.191,-2.191,-2.191,0,-2.1926,-2.1931,-2.1917,-2.1923,-2.1923,-2.1905,-2.1914,-2.1912,-2.1907,-2.1907,-2.1898,-2.1902,-2.1898,-2.1909,-2.1915,-2.1915,-2.1917,-2.1909,-2.1938,-2.1941,-2.1944,-2.1953,-2.1957,-2.1912,-2.1912,-2.1911,-2.1911,0,-2.1954,-2.1958,-2.1966,-2.1961,-2.1962,-2.1969,-2.1957,-2.1959,-2.195,-2.1943,-2.1951,-2.1945,-2.1945,-2.1947,-2.1938,-2.1956,-2.1952,-2.1941,-2.1925,-2.195,-2.1958,-2.1962,-2.1914,-2.1913,-2.1913,-2.1912,0,0,-2.1998,-2.1986,-2.1989,-2.1987,-2.198,-2.1982,-2.1989,-2.1989,-2.1991,-2.1988,-2.1993,-2.1997,-2.1987,-2.1986,-2.1977,-2.1983,-2.2005,-2.1972,-2.1971,-2.1978,-2.2025,-2.2033,-2.2038,-2.1998,-2.1999,-2.1999,-2.2026,0,-2.2025,-2.2035,-2.2023,-2.2037,-2.204,-2.2023,-2.2029,-2.2025,-2.2019,-2.2021,-2.2014,-2.2017,-2.2003,-2.2003,-2.2008,-2.2001,-2.2015,-2.1999,-2.2003,-2.2003,-2.2005,-2.2042,-2.2051,-2.2076,-2.2029,-2.2029,-2.203,0,-2.2057,-2.2056,-2.2069,-2.2061,-2.2062,-2.2068,-2.2066,-2.2068,-2.2064,-2.2059,-2.2058,-2.2047,-2.2053,-2.2038,-2.2046,-2.2036,-2.2037,-2.2034,-2.2035,-2.2035,-2.2018,-2.2043,-2.2084,-2.2088,-2.2035,-2.2034,-2.2034,0,-2.2088,-2.209,-2.2098,-2.2097,-2.2087,-2.2092,-2.2088,-2.2083,-2.2083,-2.2082,-2.2082,-2.2081,-2.2081,-2.2081,-2.2071,-2.2061,-2.2081,-2.2065,-2.2077,-2.2077,-2.2082,-2.2082,-2.2124,-2.2082,-2.2082,-2.2082,-2.2082,0,-2.2119,-2.2128,-2.2112,-2.2117,-2.2127,-2.2113,-2.2123,-2.2118,-2.2113,-2.2117,-2.2102,-2.2107,-2.2092,-2.2095,-2.2086,-2.2095,-2.2095,-2.2091,-2.2089,-2.2093,-2.2093,-2.2093,-2.2091,-2.2083,-2.2083,-2.2083,-2.2083,0,-2.2156,-2.2145,-2.2153,-2.2143,-2.2141,-2.2149,-2.214,-2.2145,-2.2138,-2.2143,-2.2143,-2.2132,-2.2134,-2.2124,-2.2124,-2.2118,-2.2131,-2.2126,-2.2133,-2.2131,-2.2144,-2.2143,-2.2187,-2.2192,-2.2148,-2.2148,-2.2149,0,-2.2176,-2.2183,-2.2174,-2.2175,-2.2172,-2.2175,-2.2175,-2.2162,-2.2163,-2.2158,-2.2163,-2.2164,-2.2165,-2.2169,-2.2161,-2.2161,-2.2156,-2.2172,-2.2156,-2.216,-2.2157,-2.2156,-2.2157,-2.2175,-2.2175,-2.2176,-2.2176,0,-2.2214,-2.2209,-2.2209,-2.2208,-2.2209,-2.2208,-2.2205,-2.2207,-2.2193,-2.2195,-2.2197,-2.2197,-2.2198,-2.2199,-2.2198,-2.2194,-2.2183,-2.2181,-2.2184,-2.2188,-2.2192,-2.219,-2.2142,-2.218,-2.218,-2.218,-2.2179,-2.2179,-2.2243,-2.2248,-2.2243,-2.2244,-2.2241,-2.2239,-2.2243,-2.2236,-2.2237,-2.2236,-2.2229,-2.2232,-2.2228,-2.2225,-2.2222,-2.2225,-2.2218,-2.2222,-2.2223,-2.2224,-2.2226,-2.2191,-2.2225,-2.2224,-2.2224,-2.2224,-2.2224,0,-2.2281,-2.2276,-2.2277,-2.2275,-2.2276,-2.2265,-2.2262,-2.2263,-2.2267,-2.2263,-2.2263,-2.2266,-2.2267,-2.2259,-2.2259,-2.2263,-2.2258,-2.2264,-2.2263,-2.2263,-2.2233,-2.223,-2.2268,-2.2268,-2.2268,-2.2268,-2.2268,-2.2268,-2.23,-2.2308,-2.2302,-2.2308,-2.2303,-2.2306,-2.2306,-2.2304,-2.2301,-2.2304,-2.2305,-2.23,-2.2294,-2.2294,-2.2295,-2.2292,-2.2293,-2.2301,-2.2297,-2.2269,-2.2265,-2.2261,-2.2258,-2.2301,-2.2301,-2.2326,-2.2326,-2.2327]}]]